ES0THZ-9 Weather Reports


time (UTC)temp
C
wind
direction
speed
KPH
gust
KPH
rain 1hr
cm
rain 24hr
cm
rain mn
cm
humidity
%
barometer
mb
20260506180046 7 54 8.0 16.1 0.00 0.00 0.00 55 1012.5
20260506175045 8 53 9.7 17.7 0.00 0.00 0.00 54 1012.4
20260506174044 8 54 8.0 14.5 0.00 0.00 0.00 55 1012.3
20260506173101 8 49 11.3 19.3 0.00 0.00 0.00 54 1012.4
20260506172039 8 51 9.7 19.3 0.00 0.00 0.00 54 1012.4
20260506171056 8 53 9.7 19.3 0.00 0.00 0.00 54 1012.4
20260506170055 8 52 9.7 17.7 0.00 0.00 0.00 54 1012.4
20260506165033 9 52 6.4 17.7 0.00 0.00 0.00 53 1012.5
20260506164031 9 54 8.0 16.1 0.00 0.00 0.00 54 1012.6
20260506163029 10 52 11.3 17.7 0.00 0.00 0.00 53 1012.7
20260506162028 10 59 12.9 20.9 0.00 0.00 0.00 52 1012.7
20260506161046 10 56 11.3 17.7 0.00 0.00 0.00 52 1012.6
20260506160022 10 59 9.7 16.1 0.00 0.00 0.00 51 1012.6
20260506155022 10 55 11.3 17.7 0.00 0.00 0.00 51 1012.4
20260506154019 11 60 9.7 16.1 0.00 0.00 0.00 50 1012.4
20260506153017 11 33 4.8 11.3 0.00 0.00 0.00 49 1012.5
20260506152015 11 19 3.2 9.7 0.00 0.00 0.00 49 1012.6
20260506151014 12 90 3.2 9.7 0.00 0.00 0.00 51 1012.8
20260506145510 12 330 1.6 8.0 0.00 0.00 0.00 49 1012.8
20260506144507 12 205 3.2 6.4 0.00 0.00 0.00 49 1012.9
20260506143506 12 90 3.2 9.7 0.00 0.00 0.00 47 1013.0
20260506142504 12 109 4.8 8.0 0.00 0.00 0.00 46 1012.9
20260506141501 12 101 6.4 11.3 0.00 0.00 0.00 46 1013.0
20260506135959 11 152 4.8 9.7 0.00 0.00 0.00 49 1013.3
20260506134958 11 129 8.0 16.1 0.00 0.00 0.00 48 1013.4
20260506133955 11 105 9.7 14.5 0.00 0.00 0.00 49 1013.4
20260506132953 11 151 6.4 11.3 0.00 0.00 0.00 51 1013.7
20260506132031 11 148 6.4 14.5 0.00 0.00 0.00 55 1013.7
20260506130948 11 129 9.7 14.5 0.00 0.00 0.00 54 1013.8
20260506125947 11 131 8.0 14.5 0.00 0.00 0.00 53 1013.9
20260506124945 11 124 6.4 14.5 0.00 0.00 0.00 55 1013.8
20260506123944 11 119 9.7 14.5 0.00 0.00 0.00 52 1013.8
20260506123001 11 117 9.7 17.7 0.00 0.00 0.00 52 1013.9
20260506121939 11 114 9.7 19.3 0.00 0.00 0.00 55 1014.0
20260506120936 11 107 6.4 11.3 0.00 0.00 0.00 57 1014.1
20260506115936 11 124 8.0 14.5 0.00 0.00 0.00 60 1014.2
20260506114934 10 115 11.3 19.3 0.00 0.00 0.00 61 1014.0
20260506113931 10 100 11.3 17.7 0.00 0.00 0.00 58 1013.8
20260506112929 10 100 11.3 17.7 0.00 0.00 0.00 58 1013.8
20260506111947 11 120 11.3 16.1 0.00 0.00 0.00 57 1013.7
20260506110925 11 109 11.3 17.7 0.00 0.00 0.00 55 1013.6
20260506105923 11 151 8.0 16.1 0.00 0.00 0.00 61 1013.6
20260506104921 11 124 11.3 17.7 0.00 0.00 0.00 60 1013.6
20260506103940 11 124 11.3 17.7 0.00 0.00 0.00 60 1013.6
20260506102917 11 121 12.9 20.9 0.00 0.00 0.00 63 1013.7
20260506101936 12 152 8.0 14.5 0.00 0.00 0.00 58 1013.6
20260506100933 11 124 9.7 17.7 0.00 0.00 0.00 57 1013.6
20260506095911 12 135 9.7 17.7 0.00 0.00 0.00 56 1013.6
20260506094909 12 143 6.4 14.5 0.00 0.00 0.00 52 1013.7
20260506093907 13 120 6.4 14.5 0.00 0.00 0.00 51 1013.7
20260506092906 13 211 3.2 9.7 0.00 0.00 0.00 43 1013.6
20260506091903 13 66 3.2 14.5 0.00 0.00 0.00 43 1013.7
20260506090901 13 75 6.4 11.3 0.00 0.00 0.00 36 1013.6
20260506085859 13 18 8.0 17.7 0.00 0.00 0.00 36 1013.7
20260506084857 13 63 3.2 11.3 0.00 0.00 0.00 38 1013.7
20260506083855 13 1 6.4 14.5 0.00 0.00 0.00 35 1013.8
20260506082854 13 56 8.0 14.5 0.00 0.00 0.00 36 1013.8
20260506081851 14 0 3.2 9.7 0.00 0.00 0.00 37 1013.7
20260506080849 13 56 4.8 9.7 0.00 0.00 0.00 40 1013.7
20260506072841 12 15 3.2 11.3 0.00 0.00 0.00 48 1013.4
20260506071919 11 36 6.4 14.5 0.00 0.00 0.00 46 1013.3
20260506070837 11 37 6.4 16.1 0.00 0.00 0.00 46 1013.3
20260506061828 10 48 4.8 11.3 0.00 0.00 0.00 65 1012.9
20260506060825 10 36 3.2 9.7 0.00 0.00 0.00 67 1012.8
20260506050813 7 346 3.2 9.7 0.00 0.00 0.00 80 1012.6
20260506044809 6 13 3.2 9.7 0.00 0.00 0.00 84 1012.7
20260506043827 5 329 3.2 8.0 0.00 0.00 0.00 84 1012.6
20260506042805 5 336 3.2 8.0 0.00 0.00 0.00 85 1012.5
20260506041803 5 345 1.6 6.4 0.00 0.00 0.00 86 1012.5
20260506040821 4 340 3.2 6.4 0.00 0.00 0.00 87 1012.3
20260506035759 4 323 3.2 6.4 0.00 0.00 0.00 87 1012.2
20260506034756 3 330 3.2 6.4 0.00 0.00 0.00 88 1012.1
20260506033756 3 311 3.2 6.4 0.00 0.00 0.00 89 1011.9
20260506032753 3 306 3.2 4.8 0.00 0.00 0.00 89 1011.8
20260506031751 3 303 3.2 6.4 0.00 0.00 0.00 89 1011.7
20260506030748 2 306 3.2 6.4 0.00 0.00 0.00 90 1011.6
20260506025806 2 309 3.2 6.4 0.00 0.00 0.00 90 1011.5
20260506024746 2 324 1.6 6.4 0.00 0.00 0.00 89 1011.4
20260506023742 2 332 1.6 4.8 0.00 0.00 0.00 90 1011.4
20260506022741 2 302 3.2 6.4 0.00 0.00 0.00 90 1011.2
20260506021739 3 310 3.2 6.4 0.00 0.00 0.00 90 1011.2
20260506020737 3 315 3.2 4.8 0.00 0.00 0.00 90 1011.1
20260506015755 3 303 3.2 6.4 0.00 0.00 0.00 90 1011.1
20260506014733 3 270 1.6 4.8 0.00 0.00 0.00 90 1010.9
20260506013731 3 284 3.2 6.4 0.00 0.00 0.00 91 1010.8
20260506012728 2 297 3.2 6.4 0.00 0.00 0.00 90 1010.8
20260506011727 2 300 3.2 6.4 0.00 0.00 0.00 90 1010.7
20260506010725 2 286 3.2 8.0 0.00 0.00 0.00 90 1010.7
20260506005723 2 308 3.2 6.4 0.00 0.00 0.00 89 1010.7
20260506004721 2 328 1.6 3.2 0.00 0.00 0.00 89 1010.6
20260506003718 2 315 1.6 3.2 0.00 0.00 0.00 89 1010.5
20260506002718 2 5 1.6 3.2 0.00 0.00 0.00 89 1010.5
20260506001735 2 5 1.6 4.8 0.00 0.00 0.00 89 1010.4
20260506000713 2 288 3.2 6.4 0.00 0.00 0.00 90 1010.3
20260505235752 2 270 3.2 6.4 0.00 0.00 0.00 90 1010.3
20260505234728 1 270 1.6 4.8 0.00 0.00 0.00 88 1010.1
20260505233706 1 270 1.6 3.2 0.00 0.00 0.00 87 1010.1
20260505232705 1 90 1.6 3.2 0.00 0.00 0.00 87 1010.2
20260505231702 1 90 1.6 3.2 0.00 0.00 0.00 86 1010.1
20260505230721 1 90 1.6 3.2 0.00 0.00 0.00 86 1010.1
20260505225659 2 67 1.6 3.2 0.00 0.00 0.00 86 1010.1
20260505224657 2 71 1.6 3.2 0.00 0.00 0.00 86 1010.2
20260505223655 2 40 1.6 3.2 0.00 0.00 0.00 87 1010.2
20260505222653 3 30 1.6 3.2 0.00 0.00 0.00 87 1010.2
20260505221651 3 315 1.6 4.8 0.00 0.00 0.00 87 1010.2
20260505220648 3 293 1.6 4.8 0.00 0.00 0.00 86 1010.1
20260505215647 3 315 1.6 4.8 0.00 0.00 0.00 86 1010.1
20260505214646 3 348 1.6 1.6 0.00 0.00 0.00 84 1010.0
20260505213642 3 90 1.6 3.2 0.00 0.00 0.00 84 1009.9
20260505212641 3 90 1.6 3.2 0.00 0.00 0.00 84 1009.8
20260505211659 4 90 1.6 3.2 0.00 0.00 0.00 84 1009.7
20260505210637 4 242 1.6 3.2 0.00 0.00 0.00 84 1009.7
20260505205635 4 240 3.2 4.8 0.00 0.00 0.00 84 1009.7
20260505204633 5 221 1.6 4.8 0.00 0.00 0.00 83 1009.6
20260505203631 5 270 1.6 3.2 0.00 0.00 0.00 83 1009.6
20260505202629 5 270 3.2 8.0 0.00 0.00 0.00 83 1009.5
20260505201629 5 240 4.8 8.0 0.00 0.00 0.00 82 1009.5
20260505200624 5 270 1.6 4.8 0.00 0.00 0.00 80 1009.4
20260505195624 5 270 1.6 4.8 0.00 0.00 0.00 79 1009.4
20260505194621 6 270 1.6 6.4 0.00 0.00 0.00 78 1009.3
20260505193620 6 270 1.6 4.8 0.00 0.00 0.00 76 1009.3
20260505192616 6 290 1.6 4.8 0.00 0.00 0.00 75 1009.3
20260505191615 6 338 1.6 6.4 0.00 0.00 0.00 74 1009.3
20260505190613 7 287 3.2 6.4 0.00 0.00 0.00 73 1009.1
20260505185631 7 295 1.6 4.8 0.00 0.00 0.00 71 1009.1
20260505184610 8 310 3.2 6.4 0.00 0.00 0.00 70 1009.1
20260505183607 8 315 1.6 6.4 0.00 0.00 0.00 68 1008.9
20260505182605 9 308 3.2 6.4 0.00 0.00 0.00 67 1008.8
20260505181603 10 307 3.2 8.0 0.00 0.00 0.00 66 1008.7
20260505180621 10 315 3.2 8.0 0.00 0.00 0.00 64 1008.6